STARLINK-31084 (58630 NORAD) Tracking and Keplerian Element Data

This shows tracking and keplerian element data for the satellite.

Feedback or suggestion? Click here.




ElementValue
Catalog58630
NameSTARLINK-31084
Epoch Orbit457
Epoch Day13.25002315
Epoch Year2024
RAAN183.7256
Inclination43.0013
Eccentricity0.0001597
Argument of Perigee259.9206
Mean Anonmoly11.0889
Mean Motion15.52628613
Decay Rate-0.01740389
L11 58630U 23203N 24013.25002315 -.01740389 00000+0 -30918-1 0 9995
L22 58630 43.0013 183.7256 0001597 259.9206 11.0889 15.52628613 4574



Live tracking and technical data element details for STARLINK-31084 (NORAD 58630). STARLINK-31084 can be tracked NOW for your location showing map with azimuth and elevation plus other details from your city location.







IsCatalogInMostPopularTable: catalog: 58630, numindb: 23
Update: records affected: 1



GetName: 58630 STARLINK-31084

Hit Count: updated at: Wed, 17 Apr 2024 03:11:24 GMT